Home   Weather   Jessheim   Past weeks

Flag for Norway Past Weather in Jessheim, Norway — Yesterday and Last 2 Weeks

Now
34 °F

Clear.


Feels Like: 34 °F
Forecast: 25 / 36 °F
Wind: No wind

Location: Oslo Gardermoen Airport

Current Time: Dec 10, 2016 at 2:22:54 am

Latest Report: Dec 10, 2016 at 1:50 am


Visibility: 10 mi

Pressure: 29.74 "Hg

Humidity: 93%

Dew Point: 32 °F

Location of JessheimLocation

Past Weather in Jessheim — Graph

°F

Jessheim Temperature Yesterday

Maximum temperature yesterday: 46 °F (at 12:20 am)
Minimum temperature yesterday: 32 °F (at 7:50 am)
Average temperature yesterday: 37 °F

High & Low Weather Summary for the Past Weeks

 TemperatureHumidityPressure
High48 °F (Nov 25, 5:50 pm)100% (Nov 25, 12:50 am)30.39 "Hg (Nov 25, 12:50 am)
Low18 °F (Dec 4, 12:50 am)36% (Nov 26, 2:20 pm)29.47 "Hg (Dec 8, 7:50 am)
Average33 °F71%29.94 "Hg
* Reported Nov 25 12:20 am — Dec 10 12:50 am, Jessheim, Weather by CustomWeather, © 2016

Note: Actual official high and low records may vary slightly from our data, if they occured in-between our weather recording intervals... More about our weather records

Advertising

Jessheim Weather History for the Previous 24 Hours

Scroll right to see more
 ConditionsComfort  
Time TempWeatherWind HumidityBarometerVisibility
12:50 am
Sat, Dec 10
34 °FLight rain. Passing clouds.No wind93%29.74 "HgN/A
11:50 pm
Fri, Dec 9
34 °FLight rain. Clear.No wind87%29.77 "HgN/A
11:20 pm34 °FClear.2 mph87%29.74 "Hg10 mi
10:50 pm34 °FClear.1 mph87%29.77 "Hg10 mi
9:50 pm34 °FPassing clouds.3 mph87%29.77 "HgN/A
9:20 pm36 °FPassing clouds.3 mph81%29.77 "HgN/A
8:50 pm34 °FClear.3 mph87%29.77 "Hg10 mi
8:20 pm34 °FClear.No wind87%29.77 "Hg10 mi
7:50 pm34 °FClear.1 mph87%29.80 "Hg10 mi
7:20 pm36 °FClear.2 mph81%29.80 "Hg10 mi
6:50 pm37 °FPassing clouds.3 mph75%29.80 "HgN/A
6:20 pm36 °FClear.1 mph81%29.80 "Hg10 mi
5:50 pm36 °FClear.No wind81%29.80 "Hg10 mi
5:20 pm36 °FClear.No wind81%29.80 "Hg10 mi
4:50 pm36 °FClear.1 mph75%29.80 "Hg10 mi
4:20 pm36 °FPassing clouds.6 mph75%29.80 "HgN/A
3:50 pm36 °FClear.2 mph75%29.80 "Hg10 mi
3:20 pm36 °FClear.No wind75%29.80 "Hg10 mi
2:50 pm39 °FPassing clouds.7 mph70%29.80 "HgN/A
2:20 pm39 °FSunny.8 mph65%29.80 "Hg10 mi
1:50 pm41 °FPassing clouds.3 mph61%29.80 "HgN/A
1:20 pm37 °FSunny.1 mph70%29.77 "Hg10 mi
12:50 pm37 °FSunny.2 mph70%29.77 "Hg10 mi
12:20 pm37 °FSunny.3 mph70%29.77 "Hg10 mi
11:50 am39 °FSunny.2 mph65%29.74 "Hg10 mi
11:20 am37 °FPassing clouds.3 mph65%29.74 "HgN/A
10:50 am41 °FSunny.1 mph57%29.74 "Hg10 mi
10:20 am37 °FSunny.2 mph65%29.71 "Hg10 mi
9:50 am36 °FSunny.2 mph70%29.71 "Hg10 mi
9:20 am36 °FSunny.2 mph70%29.71 "Hg10 mi
8:50 am36 °FClear.2 mph75%29.71 "Hg10 mi
8:20 am36 °FPassing clouds.3 mph81%29.68 "HgN/A
7:50 am32 °FClear.6 mph93%29.68 "Hg10 mi
7:20 am34 °FPassing clouds.3 mph87%29.68 "HgN/A
6:50 am34 °FClear.5 mph93%29.68 "Hg10 mi
6:20 am34 °FPassing clouds.3 mph87%29.68 "HgN/A
5:20 am39 °FPassing clouds.7 mph75%29.71 "HgN/A
4:50 am36 °FClear.8 mph81%29.68 "Hg10 mi
4:20 am39 °FClear.9 mph70%29.68 "Hg10 mi
3:50 am41 °FClear.2 mph70%29.68 "Hg10 mi
3:20 am41 °FPassing clouds.3 mph70%29.71 "HgN/A
2:50 am39 °FClear.8 mph75%29.71 "Hg10 mi
2:20 am39 °FClear.8 mph75%29.71 "Hg10 mi
Weather by CustomWeather, © 2016

See weather overviewHow to use our weather pages